Location: Grand Moustoir
(47.8355°N, 3.3120°W)
Time: 09:13:41
(UTC+00:00)

Meteor 1-16 Rocket - Pass Details

Date: 20 January 2020
Orbit: 789 x 908 km, 81.2° (Epoch: 16 February)

Event Time Altitude Azimuth Distance (km) Brightness Sun altitude
Rises 06:20:13 0° 195° (SSW) 3,523 7.4 -15.5°
Reaches altitude 10° 06:22:41 10° 197° (SSW) 2,586 6.7 -15.1°
Maximum altitude 06:28:36 75° 282° (WNW) 939 4.3 -14.1°
Drops below altitude 10° 06:34:30 10° 9° (N) 2,569 6.6 -13.2°
Sets 06:36:57 0° 11° (N) 3,499 7.4 -12.8°
